User: anonymous   Login
Location: Unspecified
(0.0000°N, 0.0000°E)
Time: 06:38:07
(UTC+00:00)
Language:

STARLINK-32400 - Orbit

View from above orbital plane
View from above orbital plane
View from above satellite
View from above satellite

Ground track
Ground track

The orbit is defined by the following mean orbital elements,

1 61669U          26145.14543265 +.00000000 +00000-0 +12839-4 0 00006
2 61669  53.1600  93.6581 0001207  89.7987 270.3152 15.30196760    03
Epoch (UTC): 25 May 2026 03:29:25
Eccentricity: 0.0001207
inclination: 53.1600°
perigee height: 474 km
apogee height: 476 km
right ascension of ascending node: 93.6581°
argument of perigee: 89.7987°
revolutions per day: 15.30196760
mean anomaly at epoch: 270.3152°

The dashed part of the orbit path shows where the satellite is in the earth's shadow,  

DLR